COSMOS 2464 (736)

Last updated on Jan. 18, 2020, 4:38 a.m. UTC

1 37139U 10041C   20017.50569235  .00000000  00000-0  00000+0 0  9993
2 37139  64.2322 271.1507 0027115  10.5347 200.5787  2.13100779 72966
UTC
Height (km)
Latitude
Longitude
Inclination
Orbital Period
UTC large
Height (km)
Speed (km/s)
/
Latitude / Longitude
Inclination (degrees)
Orbital Period (minutes)
Azimuth
Elevation
Range (km)
Doppler Factor
iOS Compass Heading
iOS Angle

Next 30 passes for location: Hong Kong

Rise time Rise Azimuth (degrees) Set time Set Azimuth (degrees) Duration Max altitude (degrees)

No matching passes for this satellites